{"data":{"norad_id":57141,"intl_designator":"2023-090AS","name":"STARLINK-5357","alt_names":[],"object_type":"PAYLOAD","status":"ACTIVE","operator":null,"country":"US","launch_date":"2023-06-23","launch_site_code":"AFETR","launch_vehicle":null,"mission":null,"orbit_class":"UNKNOWN","rcs_meters":null,"size_class":null,"mass_kg":null,"dimensions":null,"purposes":["comms"],"wikipedia_slug":null,"has_3d_model":false,"image_url":null,"decayed_at":null,"tle_current":{"epoch":"2026-09-20T23:28:44.805504Z","epoch_age_seconds":79618,"freshness":"FRESH","line1":"1 57141U 23090AS  26263.97829636 -.00000049  00000+0  77298-5 0  9992","line2":"2 57141  43.0026 240.1662 0000807 278.5509  81.5251 15.27575495180222","mean_motion":15.27575495,"eccentricity":8.07e-5,"inclination_deg":43.0026,"raan_deg":240.1662,"arg_perigee_deg":278.5509,"mean_anomaly_deg":81.5251,"bstar":7.7298e-6,"rev_number":18022,"period_min":94.267026717393,"perigee_km":482.50888685691,"apogee_km":483.61628447003,"semimajor_km":6861.1995856635,"source":"CELESTRAK","updated_at":"2026-09-21T09:00:33.566349Z"}}}